This is the latest recevied weather packets stored in our database for station/object KG7FOQ-13. If no packets are shown the sender has not sent any weather packets the latest 1 day(s).
| Time | Temp. | Humidity | Pressure | Rain* | Wind** | Luminosity | Snow |
|---|---|---|---|---|---|---|---|
| 1778065811 | 6.11° C | 53% | 1017.5 hPa | 0 mm | - | - | - |
| 1778064609 | 6.67° C | 50% | 1017.2 hPa | 0 mm | - | - | - |
| 1778064309 | 6.67° C | 49% | 1017.2 hPa | 0 mm | - | - | - |
| 1778062205 | 7.22° C | 48% | 1016.7 hPa | 0 mm | - | - | - |
| 1778060402 | 7.22° C | 52% | 1016.3 hPa | 0 mm | - | - | - |
| 1778059801 | 7.22° C | 54% | 1016.3 hPa | 0 mm | - | - | - |
| 1778059200 | 7.22° C | 53% | 1016 hPa | 0 mm | - | - | - |
| 1778058900 | 7.22° C | 53% | 1016 hPa | 0 mm | - | - | - |
| 1778058599 | 7.22° C | 53% | 1016 hPa | 0 mm | - | - | - |
| 1778058298 | 7.22° C | 54% | 1015.9 hPa | 0 mm | - | - | - |
| 1778057998 | 7.22° C | 52% | 1015.8 hPa | 0 mm | - | - | - |
| 1778057697 | 7.78° C | 52% | 1015.7 hPa | 0 mm | - | - | - |
| 1778057397 | 7.78° C | 51% | 1015.8 hPa | 0 mm | - | - | - |
| 1778057096 | 7.78° C | 52% | 1015.7 hPa | 0 mm | - | - | - |
| 1778056495 | 7.78° C | 48% | 1015.7 hPa | 0 mm | - | - | - |
| 1778055894 | 7.78° C | 47% | 1015.5 hPa | 0 mm | - | - | - |
| 1778055293 | 8.33° C | 47% | 1015.3 hPa | 0 mm | - | - | - |
| 1778054992 | 8.33° C | 47% | 1015.2 hPa | 0 mm | - | - | - |
| 1778054090 | 8.89° C | 48% | 1015.1 hPa | 0 mm | - | - | - |
| 1778053489 | 8.89° C | 48% | 1014.9 hPa | 0 mm | - | - | - |
| 1778052888 | 8.89° C | 49% | 1014.9 hPa | 0 mm | - | - | - |
| 1778052587 | 8.89° C | 47% | 1014.8 hPa | 0 mm | - | - | - |
| 1778052287 | 8.89° C | 49% | 1015 hPa | 0 mm | - | - | - |
| 1778051686 | 8.89° C | 49% | 1014.8 hPa | 0 mm | - | - | - |
| 1778051385 | 8.89° C | 49% | 1014.9 hPa | 0 mm | - | - | - |
* Rain latest hour (hover to see other rain measurements)
** Current wind speed in m/s (hover to see current wind gust speed)